Regional Weather Roundup
Issued by NWS Albany, NY

Home | Current Version | Previous Version | Graphics & Text | Print | Product List | Glossary Off
Versions: 1 2 3 4 5 6 7 8 9 10 11 12 13 14 15 16 17 18 19 20 21 22 23 24 25 26 27 28 29 30 31 32 33 34 35 36 37 38 39 40 41 42 43 44 45 46 47 48 49 50

000
ASUS41 KALY 011410
RWRALY

NEW YORK STATE HOURLY WEATHER ROUNDUP
NATIONAL WEATHER SERVICE ALBANY NY
900 AM EST SUN MAR 01 2015

NOTE: "FAIR" INDICATES FEW OR NO CLOUDS BELOW 12,000 FEET WITH NO
SIGNIFICANT WEATHER AND/OR NO OBSTRUCTIONS TO VISIBILITY.

NYZ032-033-038>043-046>054-057>066-NYZ062>081-011500-
EAST


CITY           SKY/WX    TMP DP  RH WIND       PRES   REMARKS
ALBANY         CLOUDY    13   3  64 CALM      30.60F
GLENS FALLS    CLOUDY     9   4  80 CALM      30.59F
POUGHKEEPSIE   LGT SNOW  14   7  73 CALM      30.64S VSB 3/4
NEWBURGH       LGT SNOW  14  10  85 CALM      30.61S VSB 1
MONTGOMERY     LGT SNOW  13   8  81 CALM      30.61R VSB 3/4
WHITE PLAINS   PTSUNNY   22   4  46 E3        30.60F
ISLIP          CLOUDY    27   9  46 CALM      30.63F
NEW YORK CITY  PTSUNNY   28   5  37 S6        30.64F WCI  22
CENTRAL PARK   CLOUDY    30   3  31 S7        30.65F WCI  23
$$

NYZ005>009-017-018-044>046-055-056-011500-
CENTRAL


CITY           SKY/WX    TMP DP  RH WIND       PRES   REMARKS
FULTON         LGT SNOW  16  10  77 SE6       30.47F WCI   7
SYRACUSE       LGT SNOW  12  11  97 E6        30.47F FOG     WCI   3
ROME           LGT SNOW  13  10  88 SE7       30.53F VSB 3/4 WCI   3
ELMIRA         LGT SNOW  15  12  88 CALM      30.46F VSB 1
BINGHAMTON     SNOW      13  11  92 SE9       30.41F VSB 1/2 WCI   1
MONTICELLO     CLOUDY    12  10  92 CALM      30.52S VSB 1/2
$$

NYZ026>034-041>043-011500-
NORTH


CITY           SKY/WX    TMP DP  RH WIND       PRES   REMARKS
WATERTOWN      CLOUDY    23  11  60 S12G20    30.46F WCI  12
FORT DRUM      NOT AVBL
MASSENA        MOSUNNY   13   2  61 NE3       30.51F
SARANAC LAKE   CLOUDY     3   0  87 CALM      30.39F
PLATTSBURGH    MOSUNNY    8   2  76 CALM      30.56F
$$

NYZ001>004-010>016-019>021-011500-
WEST


CITY           SKY/WX    TMP DP  RH WIND       PRES   REMARKS
NIAGARA FALLS  LGT SNOW  19  17  92 SW3       30.40F FOG
BUFFALO        LGT SNOW  19  15  84 CALM      30.40F FOG
DUNKIRK        CLOUDY    20  17  88 CALM      30.40F
JAMESTOWN      CLOUDY    18  16  93 S7        30.32F WCI   8
WELLSVILLE     LGT SNOW  19  13  77 S6        30.33F WCI  11
ROCHESTER      LGT SNOW  18  14  84 CALM      30.43F FOG
PENN YAN       LGT SNOW  19  14  81 S12       30.42F WCI   7
$$

             KEY
       WCI = WIND CHILL INDEX
       VSB = VISIBILITY
       HX  = HEAT INDEX
$$



USA.gov is the U.S. government's official web portal to all federal, state and local government web resources and services.